[[{"header":{"parameterUnit":"m.s-1","parameterCategory":1,"la1":30.2992,"la2":30.254,"lo1":-89.0895,"lo2":-89.0443,"dy":0.0025,"dx":0.0025,"nx":19,"ny":19,"refTime":"2026-04-18T09:00:00:Z","depth":0,"parameterNumber":2,"parameterNumberName":"U-component_of_WINDS"},"data":[0,0,0,-3.4037,-3.4037,-3.4044,-3.4044,-3.4072,-3.4073,0,0,0,0,0,0,0,0,0,0,0,-3.4047,-3.4048,-3.4037,-3.4037,-3.4044,-3.4044,-3.4072,-3.4073,0,0,0,0,0,0,0,0,0,0,0,-3.4047,-3.4047,-3.4048,-3.4038,-3.4044,-3.4044,-3.4072,-3.406,0,0,0,0,0,0,0,0,0,0,-3.4051,-3.4071,-3.4047,-3.4048,-3.4038,-3.4044,-3.4044,-3.4059,-3.4061,-3.4078,0,-3.4096,0,-3.4085,-3.4076,-3.4076,0,0,0,-3.4029,-3.407,-3.4061,-3.4048,-3.4038,-3.4044,-3.4038,-3.406,-3.4062,-3.4081,-3.4096,-3.4097,-3.4085,-3.4076,-3.4077,-3.4204,-3.4205,0,0,-3.4028,-3.4055,-3.406,-3.4063,-3.4062,-3.4038,-3.4039,-3.4061,-3.408,-3.4096,-3.4097,-3.4086,-3.4077,-3.4077,-3.4203,-3.4204,0,0,0,-3.4033,-3.4055,-3.4045,-3.4062,-3.4062,-3.4039,-3.4039,-3.4079,-3.4073,-3.4097,-3.4086,-3.4077,-3.4077,-3.4202,-3.4203,-3.4279,0,0,0,-3.4033,-3.4058,-3.4045,-3.4061,-3.4062,-3.407,-3.4057,-3.4072,-3.4074,-3.4086,-3.4077,-3.4078,-3.4201,-3.4203,-3.4275,-3.4311,0,0,0,-3.4043,-3.4059,-3.4064,-3.4063,-3.4066,-3.4069,-3.4065,-3.4072,-3.4067,-3.4076,-3.4078,-3.42,-3.4202,-3.4271,-3.4304,-3.4353,0,0,0,-3.4061,-3.4131,-3.4065,-3.4139,-3.4066,-3.4116,-3.4064,-3.41,-3.4116,-3.4077,-3.4201,-3.4203,-3.4269,-3.43,-3.4349,-3.4399,-3.4422,0,0,-3.4164,-3.4144,-3.4185,-3.4127,-3.4195,-3.4113,-3.4192,-3.4182,-3.4159,-3.419,-3.4193,-3.4276,-3.4304,-3.4352,-3.4542,-3.456,0,0,0,-3.4227,-3.4257,-3.4269,-3.4286,-3.428,-3.4278,-3.4253,-3.425,-3.4275,-3.418,-3.4305,-3.4321,-3.4348,-3.4371,-3.4387,-3.4409,-3.4215,-3.4214,-3.4214,-3.4411,-3.4377,-3.4443,-3.4411,-3.4428,-3.4401,-3.4412,-3.4403,-3.4364,-3.4395,-3.4404,-3.4523,-3.4551,-3.4563,-3.4586,-3.4427,-3.4427,-3.4428,-3.4428,-3.4559,-3.4597,-3.4543,-3.4588,-3.4553,-3.459,-3.4568,-3.4539,-3.457,-3.4513,-3.4535,-3.4478,-3.4584,-3.4603,-3.4433,-3.4432,-3.4432,-3.4431,-3.4431,-3.4677,-3.4689,-3.4683,-3.4704,-3.4724,-3.4688,-3.472,-3.4686,-3.4655,-3.4677,-3.4684,-3.4682,-3.4678,-3.4682,-3.4683,-3.4683,-3.4683,-3.4684,-3.4684,-3.4802,-3.4793,-3.4823,-3.4823,-3.4829,-3.4834,-3.4808,-3.4814,-3.4812,-3.4784,-3.4784,-3.4744,-3.4601,-3.4566,-3.469,-3.4689,-3.4688,-3.4688,-3.4687,-3.4967,-3.4924,-3.4972,-3.4978,-3.4975,-3.4998,-3.4954,-3.4968,-3.4968,-3.4985,-3.4939,-3.4839,-3.4816,-3.4803,-3.4775,-3.4945,-3.4945,-3.4945,-3.4945,-3.5067,-3.5052,-3.5093,-3.5106,-3.5114,-3.5079,-3.5135,-3.5117,-3.509,-3.5088,-3.5058,-3.5017,-3.5005,-3.499,-3.4973,-3.4946,-3.5156,-3.5156,-3.5157,-3.5167,-3.5151,-3.5205,-3.5178,-3.5173,-3.517,-3.5222,-3.524,-3.5201,-3.5164,-3.5086,-3.5077,-3.501,-3.499,-3.4953,-3.4927,-3.4877,0,0]},{"header":{"parameterUnit":"m.s-1","parameterCategory":1,"la1":30.2992,"la2":30.254,"lo1":-89.0895,"lo2":-89.0443,"dy":0.0025,"dx":0.0025,"nx":19,"ny":19,"refTime":"2026-04-18T09:00:00:Z","depth":0,"parameterNumber":3,"parameterNumberName":"V-component_of_WINDS"},"data":[0,0,0,-7.5834,-7.5836,-7.5923,-7.5924,-7.6044,-7.6045,0,0,0,0,0,0,0,0,0,0,0,-7.5816,-7.5817,-7.5834,-7.5836,-7.5923,-7.5924,-7.6044,-7.6045,0,0,0,0,0,0,0,0,0,0,0,-7.5816,-7.5817,-7.5819,-7.5837,-7.5923,-7.5924,-7.6043,-7.5974,0,0,0,0,0,0,0,0,0,0,-7.5887,-7.5879,-7.5817,-7.5819,-7.5837,-7.5923,-7.5924,-7.597,-7.5978,-7.6009,0,-7.6042,0,-7.6046,-7.6054,-7.6054,0,0,0,-7.5829,-7.5873,-7.589,-7.5819,-7.5838,-7.5923,-7.5882,-7.5974,-7.5983,-7.602,-7.6043,-7.6047,-7.6048,-7.6055,-7.6055,-7.6267,-7.6269,0,0,-7.5824,-7.5835,-7.5884,-7.5896,-7.5887,-7.5879,-7.5885,-7.598,-7.6005,-7.6044,-7.605,-7.605,-7.6056,-7.6057,-7.6266,-7.6268,0,0,0,-7.5815,-7.5832,-7.5846,-7.5891,-7.5907,-7.5882,-7.5888,-7.6,-7.6004,-7.6051,-7.6051,-7.6056,-7.6058,-7.6265,-7.6267,-7.6346,0,0,0,-7.5812,-7.5827,-7.5845,-7.5852,-7.5905,-7.5955,-7.5907,-7.5998,-7.6008,-7.605,-7.6056,-7.6059,-7.6263,-7.6266,-7.6341,-7.6381,0,0,0,-7.5808,-7.5826,-7.5842,-7.5853,-7.5891,-7.5953,-7.5963,-7.6,-7.6009,-7.6054,-7.606,-7.6262,-7.6265,-7.6336,-7.6373,-7.6442,0,0,0,-7.5805,-7.5908,-7.5844,-7.5959,-7.5891,-7.6003,-7.5962,-7.6044,-7.6092,-7.6057,-7.6263,-7.6267,-7.6334,-7.6368,-7.6437,-7.6503,-7.6531,0,0,-7.5941,-7.5925,-7.5992,-7.5937,-7.6064,-7.5988,-7.6126,-7.6158,-7.6149,-7.6228,-7.6233,-7.6342,-7.6373,-7.6441,-7.6685,-7.6708,0,0,0,-7.6039,-7.6087,-7.6118,-7.6168,-7.6197,-7.6226,-7.6236,-7.6248,-7.6315,-7.6193,-7.6385,-7.6402,-7.6442,-7.6473,-7.6492,-7.6526,-7.6281,-7.6281,-7.628,-7.6246,-7.6235,-7.6345,-7.6344,-7.6392,-7.6404,-7.6441,-7.6458,-7.6428,-7.6474,-7.6498,-7.6648,-7.6684,-7.6699,-7.6734,-7.653,-7.6531,-7.6531,-7.6531,-7.6446,-7.6513,-7.6475,-7.6569,-7.6555,-7.6632,-7.6647,-7.6624,-7.6692,-7.6628,-7.6662,-7.6594,-7.6724,-7.6754,-7.6537,-7.6536,-7.6535,-7.6535,-7.6534,-7.6581,-7.6612,-7.6628,-7.67,-7.6756,-7.675,-7.6819,-7.6802,-7.6786,-7.682,-7.6844,-7.6842,-7.684,-7.6833,-7.6833,-7.6834,-7.6834,-7.6834,-7.6835,-7.6716,-7.6732,-7.6794,-7.6837,-7.6868,-7.6906,-7.692,-7.6948,-7.6976,-7.6957,-7.6958,-7.6924,-7.6739,-7.6694,-7.6843,-7.6841,-7.684,-7.684,-7.6839,-7.6925,-7.6876,-7.6973,-7.7004,-7.7054,-7.7112,-7.709,-7.7151,-7.7171,-7.7206,-7.7166,-7.7032,-7.7013,-7.6997,-7.696,-7.7168,-7.7168,-7.7168,-7.7168,-7.704,-7.703,-7.7127,-7.7179,-7.7227,-7.7218,-7.7327,-7.7339,-7.7342,-7.7354,-7.7321,-7.727,-7.7254,-7.7244,-7.7223,-7.7188,-7.745,-7.745,-7.745,-7.7168,-7.7163,-7.726,-7.7267,-7.7305,-7.7337,-7.7439,-7.7498,-7.7491,-7.7462,-7.7364,-7.7352,-7.7268,-7.7241,-7.721,-7.7178,-7.7112,0,0]}]]